IT9GFD-13 Weather Reports


time (UTC)temp
F
wind
direction
speed
knots
gust
knots
rain 1hr
in
rain 24hr
in
rain mn
in
humidity
%
barometer
mb
20260508004016 65 113 1.7 6.1 0.00 0.00 0.00 83 1011.2
20260508003036 65 90 2.6 6.1 0.00 0.00 0.00 83 1011.5
20260508002015 65 135 0.9 4.3 0.00 0.00 0.00 84 1011.3
20260508001036 65 113 1.7 7.0 0.00 0.00 0.00 84 1011.2
20260508000016 65 90 3.5 7.8 0.00 0.00 0.00 85 1011.3
20260507235016 65 135 3.5 9.6 0.00 0.00 0.00 85 1011.6
20260507234015 65 158 3.5 10.4 0.00 0.00 0.00 85 1012.1
20260507233043 65 90 5.2 10.4 0.00 0.00 0.00 85 1012.2
20260507232016 65 90 5.2 11.3 0.00 0.00 0.00 85 1012.3
20260507231036 65 90 5.2 12.2 0.00 0.00 0.00 85 1012.2
20260507230016 65 90 4.3 10.4 0.00 0.00 0.00 84 1011.9
20260507225015 65 68 4.3 11.3 0.00 0.00 0.00 83 1011.7
20260507224020 66 90 0.9 6.1 0.00 0.00 0.00 82 1011.5
20260507223015 66 90 1.7 5.2 0.00 0.00 0.00 81 1011.8
20260507222016 66 135 1.7 9.6 0.00 0.00 0.00 81 1011.6
20260507221016 66 135 3.5 8.7 0.00 0.00 0.00 80 1011.5
20260507220016 66 113 2.6 7.0 0.00 0.00 0.00 80 1011.5
20260507215015 66 68 2.6 7.0 0.00 0.00 0.00 79 1011.5
20260507214015 66 90 2.6 7.0 0.00 0.00 0.00 78 1011.5
20260507213016 67 68 3.5 7.8 0.00 0.00 0.00 78 1011.7
20260507212017 67 113 4.3 12.2 0.00 0.00 0.00 77 1011.8
20260507211018 67 90 5.2 12.2 0.00 0.00 0.00 77 1011.9
20260507210017 67 90 5.2 10.4 0.00 0.00 0.00 77 1011.9
20260507205117 67 113 5.2 13.9 0.00 0.00 0.00 77 1011.4
20260507204017 67 113 4.3 9.6 0.00 0.00 0.00 76 1011.3
20260507203017 67 135 2.6 9.6 0.00 0.00 0.00 75 1011.4
20260507202017 67 113 4.3 10.4 0.00 0.00 0.00 75 1011.3
20260507201017 67 113 4.3 7.8 0.00 0.00 0.00 75 1011.3
20260507200017 67 135 5.2 12.2 0.00 0.00 0.00 74 1011.3
20260507195017 67 113 4.3 8.7 0.00 0.00 0.00 73 1011.2
20260507194017 67 113 4.3 10.4 0.00 0.00 0.00 73 1010.9
20260507193017 67 90 4.3 8.7 0.00 0.00 0.00 72 1010.9
20260507192017 67 113 6.1 11.3 0.00 0.00 0.00 72 1010.8
20260507191017 68 90 3.5 7.8 0.00 0.00 0.00 72 1010.8
20260507190017 68 90 4.3 8.7 0.00 0.00 0.00 71 1010.6
20260507185017 68 68 4.3 9.6 0.00 0.00 0.00 71 1010.4
20260507184017 68 113 5.2 12.2 0.00 0.00 0.00 70 1010.2
20260507183017 68 90 6.1 12.2 0.00 0.00 0.00 70 1010.0
20260507182017 68 90 6.1 11.3 0.00 0.00 0.00 69 1009.9
20260507181017 68 90 6.1 13.9 0.00 0.00 0.00 70 1010.1
20260507180017 68 90 7.8 17.4 0.00 0.00 0.00 70 1009.9
20260507175017 68 90 7.8 14.8 0.00 0.00 0.00 70 1010.0
20260507174017 68 113 4.3 10.4 0.00 0.00 0.00 70 1010.1
20260507173017 68 90 7.0 13.9 0.00 0.00 0.00 70 1010.2
20260507172017 68 113 6.1 13.9 0.00 0.00 0.00 70 1010.2
20260507171017 68 113 7.0 13.9 0.00 0.00 0.00 70 1009.8
20260507170017 69 113 7.0 13.0 0.00 0.00 0.00 69 1009.8
20260507165017 69 113 7.8 17.4 0.00 0.00 0.00 69 1009.4
20260507164017 69 113 7.0 16.5 0.00 0.00 0.00 68 1009.3
20260507163017 69 113 8.7 16.5 0.00 0.00 0.00 68 1009.4
20260507162017 69 135 7.8 16.5 0.00 0.00 0.00 68 1009.2
20260507161058 69 113 8.7 20.0 0.00 0.00 0.00 67 1009.3
20260507160017 70 90 7.0 14.8 0.00 0.00 0.00 65 1009.3
20260507155017 70 90 9.6 18.2 0.00 0.00 0.00 65 1009.3
20260507154017 70 68 7.0 16.5 0.00 0.00 0.00 65 1008.9
20260507153016 71 68 7.8 15.6 0.00 0.00 0.00 64 1009.1
20260507152017 71 68 7.0 17.4 0.00 0.00 0.00 63 1009.0
20260507151037 71 68 5.2 12.2 0.00 0.00 0.00 62 1009.0
20260507150016 71 68 7.0 15.6 0.00 0.00 0.00 62 1009.1
20260507145017 72 203 4.3 12.2 0.00 0.00 0.00 61 1009.2
20260507144017 72 135 4.3 8.7 0.00 0.00 0.00 59 1009.1
20260507143017 72 113 6.1 15.6 0.00 0.00 0.00 59 1009.1
20260507142017 73 180 4.3 13.0 0.00 0.00 0.00 59 1009.5
20260507141017 72 90 4.3 11.3 0.00 0.00 0.00 58 1009.8
20260507140017 73 90 7.0 18.2 0.00 0.00 0.00 57 1009.6
20260507135037 73 113 6.1 16.5 0.00 0.00 0.00 56 1009.8
20260507134017 73 113 5.2 17.4 0.00 0.00 0.00 56 1009.8
20260507133036 73 113 4.3 13.9 0.00 0.00 0.00 56 1009.9
20260507132017 74 90 7.0 13.0 0.00 0.00 0.00 54 1009.8
20260507131017 75 113 7.0 13.9 0.00 0.00 0.00 52 1009.5
20260507130016 75 90 7.8 15.6 0.00 0.00 0.00 52 1009.6
20260507125037 75 90 8.7 14.8 0.00 0.00 0.00 50 1009.3
20260507124037 75 90 5.2 13.9 0.00 0.00 0.00 50 1009.3
20260507123016 75 68 6.1 16.5 0.00 0.00 0.00 49 1009.0
20260507122017 76 113 7.8 14.8 0.00 0.00 0.00 48 1008.9
20260507121017 76 113 6.1 14.8 0.00 0.00 0.00 44 1008.6
20260507120016 76 90 5.2 12.2 0.00 0.00 0.00 45 1008.6
20260507115017 77 90 7.8 14.8 0.00 0.00 0.00 43 1008.7
20260507114017 77 113 6.1 13.9 0.00 0.00 0.00 39 1008.6
20260507113056 77 90 5.2 11.3 0.00 0.00 0.00 42 1008.3
20260507112016 76 90 7.8 17.4 0.00 0.00 0.00 39 1008.5
20260507111016 76 113 7.8 16.5 0.00 0.00 0.00 40 1008.3
20260507110016 76 90 5.2 13.0 0.00 0.00 0.00 40 1007.4
20260507105017 76 135 6.1 13.9 0.00 0.00 0.00 42 1006.4
20260507104016 76 90 6.1 15.6 0.00 0.00 0.00 40 1006.5
20260507103016 76 113 7.8 13.9 0.00 0.00 0.00 39 1006.9
20260507102017 76 135 6.1 14.8 0.00 0.00 0.00 40 1007.6
20260507101016 76 90 7.0 13.9 0.00 0.00 0.00 40 1008.0
20260507100016 76 90 7.0 16.5 0.00 0.00 0.00 40 1007.5
20260507095016 76 90 5.2 13.9 0.00 0.00 0.00 40 1008.2
20260507094016 75 90 8.7 15.6 0.00 0.00 0.00 40 1008.9
20260507093016 75 90 6.1 15.6 0.00 0.00 0.00 42 1009.8
20260507092016 74 113 7.8 17.4 0.00 0.00 0.00 42 1011.1
20260507091016 74 113 7.8 14.8 0.00 0.00 0.00 43 1010.7
20260507090036 74 135 7.0 15.6 0.00 0.00 0.00 45 1010.1
20260507085016 74 113 6.1 14.8 0.00 0.00 0.00 44 1010.0
20260507084016 73 90 6.1 13.0 0.00 0.00 0.00 47 1010.5
20260507083037 73 90 5.2 10.4 0.00 0.00 0.00 47 1011.4
20260507082017 73 113 5.2 12.2 0.00 0.00 0.00 49 1011.5
20260507081016 72 68 5.2 10.4 0.00 0.00 0.00 52 1011.1
20260507080016 72 113 6.1 14.8 0.00 0.00 0.00 50 1010.0
20260507075016 73 158 4.3 13.9 0.00 0.00 0.00 47 1010.6
20260507074016 72 90 5.2 11.3 0.00 0.00 0.00 48 1011.9
20260507073016 71 113 4.3 12.2 0.00 0.00 0.00 48 1013.6
20260507072036 71 113 3.5 7.8 0.00 0.00 0.00 50 1014.5
20260507071016 70 113 5.2 12.2 0.00 0.00 0.00 52 1014.6
20260507070016 68 90 5.2 8.7 0.00 0.00 0.00 56 1014.6
20260507065036 65 23 0.9 3.5 0.00 0.00 0.00 74 1014.8
20260507064016 65 315 2.6 6.1 0.00 0.00 0.00 76 1015.1
20260507063016 64 293 1.7 5.2 0.00 0.00 0.00 75 1015.2
20260507062016 64 0.0 0.0 0.00 0.00 0.00 78 1015.1
20260507061036 64 0.0 0.0 0.00 0.00 0.00 79 1015.3
20260507060016 64 0.0 0.0 0.00 0.00 0.00 80 1015.2
20260507055016 64 0.0 0.0 0.00 0.00 0.00 80 1015.3
20260507054016 64 0.0 0.0 0.00 0.00 0.00 80 1015.2
20260507053016 63 0.0 0.0 0.00 0.00 0.00 81 1015.4
20260507052016 63 0.0 0.0 0.00 0.00 0.00 82 1015.3
20260507051016 63 90 0.9 2.6 0.00 0.00 0.00 82 1015.4
20260507050016 63 0.0 1.7 0.00 0.00 0.00 82 1015.3
20260507045016 63 113 0.9 2.6 0.00 0.00 0.00 82 1015.3
20260507044016 63 0.0 1.7 0.00 0.00 0.00 81 1015.6
20260507043016 64 0.0 0.0 0.00 0.00 0.00 80 1015.5
20260507042016 64 113 2.6 6.1 0.00 0.00 0.00 77 1015.7
20260507041016 65 90 0.9 3.5 0.00 0.00 0.00 71 1015.7
20260507040016 64 0.0 0.0 0.00 0.00 0.00 65 1015.6
20260507035016 64 0.0 3.5 0.00 0.00 0.00 66 1015.4
20260507034016 63 203 0.9 6.1 0.00 0.00 0.00 68 1015.3
20260507033016 63 0.0 0.0 0.00 0.00 0.00 70 1015.3
20260507032016 63 0.0 1.7 0.00 0.00 0.00 73 1015.1
20260507031016 63 0.0 0.0 0.00 0.00 0.00 74 1015.3
20260507030016 63 0.0 0.0 0.00 0.00 0.00 76 1015.3
20260507025036 63 0.0 0.0 0.00 0.00 0.00 78 1015.3
20260507024016 63 90 0.9 3.5 0.00 0.00 0.00 80 1015.0
20260507023016 63 0.0 1.7 0.00 0.00 0.00 83 1015.2
20260507022016 63 45 0.9 2.6 0.00 0.00 0.00 85 1015.3
20260507021015 63 293 0.9 2.6 0.00 0.00 0.00 86 1015.6
20260507020016 63 315 0.9 2.6 0.00 0.00 0.00 86 1015.6
20260507015016 63 0.0 3.5 0.00 0.00 0.00 87 1015.4
20260507014015 63 90 2.6 6.1 0.00 0.00 0.00 86 1015.2
20260507013015 63 90 2.6 7.0 0.00 0.00 0.00 86 1015.7
20260507012016 63 113 1.7 6.1 0.00 0.00 0.00 86 1015.8
20260507011016 63 135 5.2 9.6 0.00 0.00 0.00 85 1015.7
20260507010016 63 68 4.3 8.7 0.00 0.00 0.00 85 1015.8
20260507005016 63 68 2.6 7.0 0.00 0.00 0.00 84 1015.8